Location: Unspecified
(40.9447°N, 78.9903°W)
Time: 12:13:34
(UTC-04:00)

Resurs 1-4 Rocket - Pass Details

Date: 01 August 2021
Orbit: 799 x 815 km, 98.6° (Epoch: 23 September)

Event Time Altitude Azimuth Distance (km) Brightness Sun altitude
Rises 01:43:05 0° 28° (NNE) 3,335 6.3 -30.9°
Reaches altitude 10° 01:46:01 10° 45° (NE) 2,396 5.1 -30.9°
Enters shadow 01:49:29 21° 85° (E) 1,757 3.9 -30.8°
